Location: Unspecified
(0.0000°N, 0.0000°E)
Time: 19:37:34
(UTC+00:00)

Vanguard 1 Rocket - Pass Details

Date: 22 April 2026
Orbit: 655 x 4212 km, 34.3° (Epoch: 17 May)

Event Time Altitude Azimuth Distance (km) Brightness Sun altitude
Rises 18:26:37 0° 252° (WSW) 5,648 12.6 -6.9°
Reaches altitude 10° 18:29:49 10° 257° (WSW) 5,027 12.4 -7.6°
Maximum altitude 18:45:27 52° 329° (NNW) 4,071 10.9 -11.5°
Drops below altitude 10° 19:10:05 10° 40° (NE) 7,405 11.7 -17.5°
Sets 19:16:21 0° 46° (NE) 8,356 12.0 -19.0°
